Probability
55 52 48 55 55 58 61 61 61 58 58 52 55 52 48 39 35 39 32 58 68 61 61 65 65 61 58 65 65 65 58 52 45 48 58 55 48 48 39 39 39 35 35
55 52 45 58 52 55 52 48 55 61 58 58 55 48 52 42 42 42 32 45 58 65 68 68 58 58 61 65 61 68 65 55 55 58 55 58 58 58 48 39 32 35 35
58 68 61 58 58 61 48 58 55 52 52 55 55 48 52 52 52 45 45 39 39 68 68 71 68 74 61 61 65 68 68 68 58 61 58 55 58 55 52 45 42 42 39
61 61 61 58 61 65 65 65 55 58 58 58 55 42 42 52 48 48 45 45 52 26 52 71 61 55 52 48 55 58 61 68 68 65 61 52 52 52 52 48 48 39 42
58 58 68 61 58 61 58 42 55 52 52 58 39 52 48 48 52 42 45 45 42 35 29 42 61 55 55 55 52 55 52 55 58 42 48 42 45 48 45 42 39 35 35
58 61 61 61 61 61 61 61 58 65 55 58 26 29 39 45 55 48 32 42 39 35 32 29 35 39 58 58 61 55 42 48 48 42 35 35 35 45 48 39 39 39 35
55 48 52 58 58 55 61 61 58 55 58 58 45 35 29 35 32 45 52 42 39 42 39 45 42 26 32 35 48 55 52 42 35 39 39 39 48 48 45 45 39 35 26
48 39 55 52 55 48 52 52 55 61 42 45 39 32 26 29 39 16 42 42 39 42 42 35 45 42 29 26 13 39 52 48 42 35 35 39 39 42 42 45 42 32 29
48 48 55 52 55 48 52 52 52 52 42 42 42 39 26 23 32 45 32 35 39 32 32 39 35 45 32 26 26 19 39 39 39 32 32 39 39 39 39 39 29 29 35
39 45 45 45 42 42 48 45 42 45 45 39 42 39 29 32 23 26 26 32 32 35 32 23 19 32 42 45 32 13 26 26 29 35 26 26 26 29 29 29 23 26 35
42 45 48 45 45 45 48 48 45 39 39 29 32 39 32 32 29 26 13 26 19 26 29 26 26 26 26 32 29 19 0 0 13 19 26 23 26 23 23 19 16 23 23
45 42 42 42 42 39 39 42 42 35 42 35 29 26 32 32 35 32 23 23 16 23 19 19 13 19 13 16 16 13 3 0 0 0 6 13 16 23 23 16 13 19 13
42 42 39 39 39 45 45 42 42 39 42 39 35 26 29 29 35 29 32 23 19 16 19 23 16 16 10 16 13 3 0 0 0 0 3 3 13 16 13 16 13 13 6
45 48 45 42 42 42 35 39 35 35 35 35 26 32 29 32 26 29 26 26 19 19 19 16 19 23 13 19 10 0 0 0 0 0 0 3 3 10 6 3 3 3 0
42 48 45 42 42 42 39 39 42 39 39 35 29 32 35 32 29 26 26 29 19 13 6 13 13 13 16 16 0 0 3 0 0 0 0 0 3 3 0 0 0 0 0
48 45 45 45 42 42 42 42 45 35 32 32 42 42 42 26 29 23 23 35 29 19 10 10 10 13 10 3 0 0 13 0 0 0 0 0 0 0 0 0 0 0 0
48 42 42 48 45 42 39 45 39 39 32 32 29 29 26 26 29 29 29 32 23 26 13 3 10 16 16 13 0 3 3 0 0 0 0 0 0 0 0 0 0 0 0
45 45 45 42 39 42 48 48 39 32 35 35 39 35 32 32 32 32 29 26 26 26 16 6 6 13 13 6 10 10 3 0 3 0 0 0 0 0 0 0 0 0 0
52 45 45 42 42 45 45 42 35 32 42 45 42 39 35 26 26 26 26 26 26 23 29 16 6 6 6 3 10 6 0 0 3 0 0 0 0 0 0 0 0 0 0
52 48 45 42 45 45 45 39 39 42 42 45 42 39 35 29 23 29 23 29 23 26 19 16 10 6 3 6 6 3 0 0 0 0 0 0 0 0 0 0 0 0 0
42 45 42 39 39 35 32 32 32 39 42 42 39 35 29 23 10 10 10 16 23 26 19 13 10 10 6 6 6 3 0 0 0 0 0 0 0 0 0 0 0 0 0
48 45 42 35 35 26 19 10 19 29 35 39 39 29 26 16 10 0 0 3 3 13 16 19 16 10 16 6 3 3 3 0 0 0 0 0 0 0 0 0 0 0 0
45 42 35 35 35 26 16 3 3 19 26 32 35 32 16 13 13 10 0 0 0 0 6 13 13 19 13 16 13 3 3 3 3 6 0 0 0 0 0 0 0 0 0
39 35 29 32 32 23 16 3 3 6 23 23 26 29 26 16 13 16 13 16 16 13 0 6 10 16 10 16 13 10 6 3 3 3 3 3 0 0 0 0 0 0 0
42 35 29 32 29 23 10 3 0 3 13 16 13 13 23 19 13 3 6 19 16 13 6 0 6 10 3 3 6 6 3 3 3 3 3 3 3 3 0 0 0 0 0
45 39 32 26 26 26 10 3 3 6 13 13 6 10 6 3 3 3 10 19 16 13 6 6 3 3 0 3 0 6 6 3 3 3 6 3 3 3 0 0 0 0 0
Height
5884 5884 5884 5884 5883 5883 5883 5883 5884 5884 5885 5885 5885 5886 5886 5887 5887 5888 5888 5889 5890 5891 5891 5892 5893 5894 5894 5895 5896 5896 5897 5897 5898 5898 5899 5899 5900 5900 5901 5901 5901 5902 5902
5882 5882 5882 5882 5881 5881 5881 5881 5881 5882 5882 5883 5883 5884 5884 5885 5885 5886 5886 5886 5887 5888 5889 5889 5890 5891 5892 5893 5893 5894 5894 5895 5895 5896 5896 5897 5897 5898 5898 5899 5899 5900 5900
5881 5881 5880 5880 5879 5879 5879 5879 5879 5879 5880 5880 5881 5881 5882 5882 5883 5884 5884 5884 5885 5885 5886 5886 5887 5888 5889 5890 5890 5891 5891 5892 5893 5893 5894 5895 5895 5896 5896 5897 5897 5898 5898
5879 5879 5878 5878 5877 5877 5877 5876 5877 5877 5877 5877 5877 5878 5879 5880 5880 5881 5881 5882 5882 5883 5883 5884 5884 5885 5886 5887 5887 5888 5888 5889 5890 5890 5891 5892 5893 5893 5894 5895 5895 5896 5896
5878 5877 5876 5875 5875 5874 5874 5874 5874 5874 5874 5874 5874 5875 5876 5876 5877 5878 5878 5879 5879 5880 5880 5881 5881 5882 5883 5883 5884 5884 5885 5886 5887 5887 5888 5889 5890 5891 5891 5892 5893 5893 5894
5876 5875 5874 5873 5873 5872 5872 5871 5871 5871 5871 5871 5871 5872 5873 5873 5874 5874 5875 5876 5876 5877 5877 5878 5878 5879 5880 5880 5881 5881 5882 5883 5883 5884 5885 5886 5887 5888 5888 5889 5890 5890 5891
5874 5873 5872 5871 5870 5870 5869 5869 5868 5868 5868 5868 5868 5869 5869 5869 5870 5870 5871 5872 5873 5873 5874 5875 5875 5875 5876 5877 5877 5878 5878 5879 5880 5881 5881 5882 5883 5884 5885 5886 5886 5887 5888
5872 5871 5870 5869 5868 5867 5867 5866 5866 5866 5865 5865 5865 5865 5865 5866 5866 5866 5867 5868 5869 5869 5870 5870 5871 5871 5873 5873 5874 5874 5875 5875 5876 5877 5878 5878 5879 5880 5881 5882 5882 5883 5884
5871 5869 5868 5866 5865 5864 5864 5864 5864 5863 5863 5862 5861 5861 5862 5862 5862 5862 5863 5864 5864 5865 5866 5866 5866 5867 5869 5869 5870 5870 5871 5871 5872 5873 5873 5874 5875 5876 5877 5878 5878 5879 5879
5869 5867 5865 5864 5863 5862 5861 5861 5861 5860 5859 5859 5858 5858 5858 5857 5858 5858 5859 5859 5859 5860 5861 5862 5863 5864 5864 5865 5865 5866 5866 5867 5868 5869 5869 5870 5871 5872 5872 5873 5874 5875 5875
5868 5866 5864 5862 5860 5859 5859 5858 5858 5857 5856 5855 5855 5854 5854 5853 5853 5853 5854 5855 5855 5855 5856 5857 5858 5859 5860 5860 5861 5861 5862 5863 5863 5864 5865 5866 5866 5867 5868 5868 5869 5870 5870
5866 5864 5862 5860 5859 5858 5856 5856 5855 5853 5853 5852 5851 5850 5850 5849 5848 5848 5849 5849 5850 5850 5851 5852 5853 5854 5854 5855 5856 5856 5857 5858 5859 5859 5860 5861 5862 5862 5863 5864 5864 5865 5865
5864 5862 5860 5858 5857 5855 5854 5853 5851 5850 5849 5848 5847 5846 5845 5844 5844 5843 5843 5844 5844 5845 5846 5847 5848 5848 5849 5850 5850 5850 5851 5852 5853 5854 5855 5856 5856 5857 5857 5858 5859 5859 5860
5862 5860 5858 5856 5854 5852 5851 5849 5848 5847 5845 5844 5843 5842 5841 5840 5839 5839 5838 5839 5839 5839 5840 5841 5842 5843 5844 5844 5844 5845 5846 5847 5847 5848 5849 5850 5851 5851 5852 5853 5853 5854 5854
5860 5858 5856 5854 5852 5849 5848 5846 5844 5843 5841 5840 5838 5837 5836 5835 5834 5834 5833 5833 5834 5834 5834 5835 5836 5837 5838 5839 5839 5840 5841 5842 5842 5842 5843 5844 5845 5846 5846 5847 5847 5848 5848
5858 5856 5853 5851 5849 5846 5845 5843 5841 5839 5838 5836 5834 5832 5831 5830 5829 5828 5828 5828 5828 5828 5829 5830 5831 5831 5832 5833 5832 5833 5834 5835 5835 5836 5837 5838 5839 5839 5840 5840 5841 5841 5842
5856 5853 5851 5848 5846 5844 5842 5840 5838 5836 5834 5832 5830 5828 5827 5825 5824 5823 5823 5823 5823 5823 5823 5823 5824 5825 5826 5826 5826 5826 5828 5829 5829 5830 5831 5831 5832 5833 5833 5834 5835 5835 5836
5853 5851 5848 5845 5843 5841 5839 5836 5834 5832 5830 5828 5826 5824 5822 5821 5819 5818 5818 5818 5818 5817 5817 5818 5818 5819 5819 5820 5821 5821 5822 5822 5823 5823 5824 5825 5825 5826 5827 5827 5828 5829 5829
5850 5848 5845 5843 5840 5838 5835 5833 5830 5828 5826 5823 5821 5820 5818 5816 5815 5814 5813 5813 5812 5812 5812 5812 5813 5813 5813 5814 5815 5815 5815 5816 5816 5816 5817 5818 5819 5819 5820 5821 5821 5822 5822
5846 5844 5842 5839 5836 5834 5831 5829 5826 5824 5821 5819 5817 5814 5812 5811 5809 5808 5808 5807 5806 5806 5806 5807 5807 5807 5808 5808 5808 5809 5809 5809 5810 5810 5811 5811 5812 5813 5813 5814 5814 5815 5815
5843 5840 5838 5835 5833 5830 5827 5824 5821 5819 5817 5814 5812 5809 5807 5806 5804 5803 5802 5801 5801 5800 5800 5801 5801 5801 5802 5802 5802 5802 5803 5803 5803 5803 5804 5805 5806 5806 5806 5807 5807 5807 5808
5838 5836 5833 5831 5828 5826 5823 5820 5817 5814 5812 5809 5807 5804 5802 5800 5798 5797 5796 5795 5794 5794 5794 5794 5794 5795 5796 5796 5796 5796 5796 5796 5797 5797 5797 5798 5799 5799 5799 5799 5800 5800 5800
5835 5832 5829 5826 5824 5821 5818 5815 5812 5809 5806 5804 5801 5799 5796 5794 5792 5791 5789 5788 5788 5787 5787 5787 5787 5788 5788 5788 5789 5789 5789 5789 5790 5790 5790 5790 5791 5791 5791 5791 5791 5792 5792
5830 5827 5824 5822 5819 5816 5813 5810 5807 5804 5801 5798 5795 5793 5790 5788 5786 5784 5783 5782 5781 5780 5780 5780 5780 5780 5780 5781 5781 5781 5781 5782 5782 5782 5782 5782 5782 5783 5783 5783 5783 5783 5784
5825 5822 5819 5816 5814 5811 5808 5804 5801 5798 5795 5793 5789 5786 5783 5782 5780 5777 5776 5775 5774 5773 5773 5773 5773 5772 5773 5773 5774 5774 5774 5774 5774 5774 5774 5774 5774 5775 5775 5775 5775 5775 5776
5819 5816 5813 5810 5808 5805 5802 5799 5795 5792 5789 5786 5783 5780 5778 5775 5773 5771 5769 5768 5767 5766 5765 5765 5765 5765 5765 5765 5766 5766 5766 5766 5766 5766 5766 5767 5767 5767 5767 5767 5767 5767 5767
Wind_Speed
7 7 7 7 7 8 8 9 10 10 10 10 10 10 10 10 10 9 10 11 12 12 11 11 11 12 12 12 11 12 11 11 10 10 9 9 9 8 8 7 7 7 6
8 8 8 8 8 9 9 9 9 10 10 11 11 12 12 12 11 11 10 11 12 13 13 13 13 13 13 13 13 12 12 11 12 10 10 10 9 9 9 9 8 7 7
8 8 9 9 10 10 9 9 10 10 11 11 11 12 12 12 12 12 11 11 11 12 13 13 13 14 14 13 13 13 13 13 12 12 11 11 10 10 10 9 9 9 9
9 9 9 10 10 10 10 11 11 12 12 12 12 13 13 12 12 13 12 12 12 12 12 13 13 13 13 12 13 13 14 14 13 13 12 12 11 11 10 10 10 9 9
10 10 10 10 10 10 11 11 11 12 12 13 13 13 13 13 14 14 13 13 13 13 13 13 14 14 14 13 13 13 14 14 14 13 12 13 12 12 12 11 11 11 10
10 10 10 11 11 11 11 11 11 11 12 13 13 14 14 14 15 15 14 14 14 14 14 14 14 13 14 14 14 14 14 14 14 14 13 13 13 14 14 13 13 12 12
10 10 10 11 11 11 11 11 11 11 12 13 15 15 15 15 15 15 15 15 15 15 15 15 14 14 14 14 15 16 16 15 15 16 16 15 15 15 15 15 14 14 14
11 11 11 11 11 11 11 11 11 11 11 13 14 15 15 16 16 15 15 15 16 16 16 16 16 15 15 15 15 16 16 17 17 17 18 17 17 17 17 17 16 16 16
12 12 12 12 11 10 10 11 11 12 12 12 13 13 14 16 17 17 16 16 16 16 16 16 16 16 16 16 16 16 16 16 17 18 18 18 17 18 17 17 17 17 17
12 12 12 11 10 10 11 11 12 12 13 13 14 14 14 16 17 17 18 18 17 17 17 17 17 17 17 17 17 17 17 17 17 17 18 18 17 17 17 18 18 17 18
13 13 12 11 11 11 11 12 12 13 13 14 14 15 16 16 17 18 18 19 19 18 18 19 18 18 19 19 19 19 18 18 18 18 18 18 18 17 18 18 19 18 18
14 14 13 12 13 12 12 13 13 14 15 15 15 16 16 17 17 18 18 19 20 20 20 20 19 20 20 19 19 20 19 19 19 19 19 19 19 19 19 19 19 19 20
14 14 14 14 14 13 13 14 15 16 16 17 16 17 17 17 17 18 18 19 20 21 21 20 20 20 20 20 20 21 20 21 21 20 20 20 20 20 20 19 20 19 20
15 15 15 15 15 14 14 15 16 17 17 18 19 19 18 18 18 18 18 19 20 20 20 21 21 21 20 21 21 21 21 21 21 20 20 21 22 21 21 21 21 21 21
15 15 15 15 16 15 16 16 16 17 17 18 19 19 19 19 18 19 19 19 18 19 20 21 21 21 21 21 22 22 21 21 21 21 22 22 22 23 23 22 23 22 22
16 16 16 16 16 16 17 17 17 17 18 18 18 18 19 19 20 20 19 18 18 19 20 20 20 21 21 21 22 22 22 23 22 22 22 22 23 23 23 23 23 23 22
16 17 17 17 17 17 18 18 18 18 18 18 18 18 18 19 19 20 20 19 19 20 21 21 21 21 21 22 22 22 22 23 23 22 22 22 23 22 22 22 22 22 23
17 17 17 17 18 18 18 19 19 20 19 19 18 18 18 19 18 18 19 20 21 21 21 21 21 21 21 21 23 24 24 23 23 22 22 22 22 22 23 23 23 24 24
18 18 19 18 19 19 20 20 20 20 20 20 19 19 19 19 19 18 18 19 20 20 20 20 20 21 21 21 22 23 24 24 23 23 23 23 23 22 22 23 23 24 24
19 20 20 20 20 20 21 20 20 20 20 21 21 20 19 19 19 19 19 20 20 21 21 21 21 21 22 22 22 23 23 23 23 23 23 24 23 23 23 24 24 24 25
21 20 20 21 21 21 21 21 21 21 21 22 22 21 21 20 20 21 21 21 21 22 22 22 22 22 22 22 23 23 23 24 23 24 24 23 23 23 24 25 25 25 25
21 21 21 22 22 22 22 22 22 22 23 23 23 23 22 22 22 22 22 22 23 23 23 24 24 24 23 24 24 24 24 23 23 24 24 24 25 25 25 25 25 25 25
23 22 23 23 23 23 23 23 23 23 24 24 24 24 24 24 23 23 23 23 24 24 24 24 24 24 24 25 25 25 25 24 24 24 24 25 26 26 26 26 26 26 26
23 24 24 24 25 25 24 25 25 25 25 25 25 25 25 25 23 23 23 24 25 25 25 24 24 24 25 25 25 25 25 26 25 25 24 25 26 26 27 26 26 27 27
25 25 25 26 26 25 26 26 26 26 26 26 26 26 25 24 24 24 24 24 24 25 25 25 25 25 25 26 26 26 26 26 26 26 25 25 25 26 26 26 26 27 27
26 27 26 26 26 26 27 27 27 27 27 27 27 25 24 24 24 24 24 24 24 24 24 24 24 25 26 26 26 26 26 26 27 26 25 26 25 26 26 26 26 26 27
Wind_Direction
302 298 290 285 282 281 278 272 264 261 262 264 263 261 260 266 271 263 256 254 255 257 260 259 256 259 261 262 261 258 259 258 261 263 262 259 259 260 266 271 268 270 275
302 300 297 291 289 286 284 277 270 265 263 263 262 262 262 265 269 267 261 258 258 258 260 260 257 260 263 264 262 257 256 259 261 260 264 260 257 256 260 266 267 271 273
307 303 298 294 290 287 283 280 274 268 265 265 262 263 265 265 268 265 265 263 261 260 260 259 260 261 262 263 261 258 255 257 258 258 259 257 258 260 259 262 266 269 271
307 303 300 298 293 290 287 283 278 272 270 269 264 261 263 265 269 267 264 265 263 262 261 261 262 263 267 267 264 262 257 256 257 258 257 256 257 260 257 259 262 264 267
312 306 303 302 300 294 290 287 282 277 274 272 267 264 262 263 266 266 265 268 265 262 261 261 262 263 264 267 268 268 262 259 259 256 257 258 258 259 258 258 261 263 266
315 308 304 300 298 296 293 291 284 278 276 271 270 268 264 264 266 267 265 266 263 263 263 263 267 265 266 266 265 267 264 260 259 256 258 260 261 263 260 260 261 262 264
320 315 310 301 296 294 292 293 291 282 279 274 272 271 267 265 267 268 263 263 264 264 263 262 265 266 267 267 266 264 262 259 257 255 257 258 260 261 259 259 259 259 260
323 318 314 308 301 297 294 293 290 287 285 283 276 272 270 267 265 266 263 264 263 263 262 262 263 264 267 269 270 265 261 260 260 258 258 258 259 260 259 257 259 259 260
323 319 317 313 305 301 296 293 291 290 289 288 285 280 271 267 266 266 263 263 265 265 262 262 262 264 265 266 268 267 263 261 261 260 258 258 259 261 260 257 258 258 259
331 324 320 316 305 300 297 296 297 296 293 290 286 283 279 274 268 266 264 264 266 266 264 263 263 264 265 266 266 267 266 262 263 263 260 261 261 261 259 261 261 260 260
332 329 326 321 315 307 300 300 301 297 294 290 287 284 281 279 273 268 267 267 267 267 265 262 261 263 265 265 266 267 267 266 266 267 266 264 264 266 266 266 265 264 264
328 328 327 322 317 312 307 304 303 299 297 294 289 286 283 282 276 272 270 269 268 267 265 264 263 264 265 265 265 266 266 266 266 266 267 266 266 267 270 266 267 265 266
329 328 326 322 316 311 307 306 305 303 298 297 292 289 286 283 280 274 271 270 269 267 264 262 264 265 265 266 266 264 266 266 265 265 264 265 264 266 266 266 266 266 266
329 329 328 323 317 313 309 305 303 304 303 300 295 291 289 284 281 277 273 272 271 268 265 262 263 265 266 264 264 263 265 264 265 265 265 264 265 265 264 265 266 265 265
329 329 328 325 320 316 311 309 309 308 306 303 299 294 292 289 285 279 278 276 273 271 269 266 264 264 265 264 263 263 263 265 266 265 266 266 265 266 266 268 268 265 263
328 328 326 324 321 318 313 311 313 310 308 306 303 299 294 290 286 281 278 276 274 272 271 270 269 267 267 265 264 261 263 263 267 266 267 267 266 266 266 267 266 265 264
326 327 327 325 322 319 316 314 314 312 310 307 305 300 295 290 286 282 278 277 276 273 269 267 269 269 267 266 267 265 265 264 265 266 266 265 264 264 265 266 265 266 263
323 323 323 324 322 320 318 316 316 314 313 310 307 301 297 293 289 283 282 280 279 277 271 268 270 269 267 266 266 267 266 265 264 265 265 265 265 264 265 265 265 265 265
321 321 321 320 320 319 318 316 315 315 315 314 311 305 298 295 292 288 285 283 282 280 274 270 271 270 268 268 269 269 268 267 266 266 266 267 267 266 265 265 266 266 265
319 318 320 319 319 318 317 316 314 314 314 314 313 309 303 298 293 289 287 285 284 281 277 273 273 272 272 271 270 270 270 271 270 270 268 267 268 268 267 267 267 266 265
318 318 318 318 318 318 318 317 315 313 312 313 313 310 305 300 295 289 286 285 284 282 278 275 275 275 275 273 271 272 273 275 272 273 270 268 268 268 268 268 268 265 265
318 318 317 317 317 318 318 317 315 313 312 311 310 308 305 300 294 289 286 285 284 281 278 276 276 276 275 274 273 273 274 276 274 272 271 270 269 268 268 268 268 268 267
316 315 315 316 316 315 315 315 315 313 309 310 310 307 304 300 295 290 287 284 282 280 278 276 274 274 274 273 273 273 273 274 276 277 276 275 272 271 271 271 268 267 266
311 312 312 313 314 313 313 314 314 314 313 310 309 307 304 301 296 292 287 285 283 282 279 278 276 273 272 272 272 273 272 273 275 275 275 275 274 272 272 271 267 267 267
308 309 309 310 311 312 312 313 313 312 312 311 310 307 305 302 301 296 291 287 284 282 280 278 277 273 272 272 272 272 272 273 273 275 275 276 275 272 271 269 269 268 267
306 307 308 308 308 309 311 311 311 310 311 312 311 311 307 305 303 301 295 289 285 282 280 279 278 276 273 272 271 271 272 272 271 272 273 273 273 272 272 270 271 269 267